Yankton, SD

1:50 AM CDT on August 20, 2017 (GMT -0500)
Gurney Municipal

Weather History for KYKN - April, 2014

Change the Weather History Date:

Tuesday, April 1, 2014

  Actual Average Record
Temperature  
Mean Temperature 25 °F -  
Max Temperature 33 °F 55 °F 91 °F (2012)
Min Temperature 17 °F 29 °F 13 °F (1954)
Degree Days  
Heating Degree Days 40    
Moisture  
Dew Point 17 °F    
Average Humidity 72    
Maximum Humidity 93    
Minimum Humidity 56    
Precipitation  
Precipitation 0.00 in - - ()
Sea Level Pressure  
Sea Level Pressure 30.06 in    
Wind  
Wind Speed 19 mph (NW)    
Max Wind Speed 32 mph    
Max Gust Speed 44 mph    
Visibility 10 miles    
Events      
Averages and records for this station are not official NWS values.
T = Trace of Precipitation, MM = Missing Value Source: NWS Daily Summary

Daily Weather History Graph

Daily Weather History Graph

Search for Another Location

Airport or City:

Trip Planner

Search our weather history database for the weather conditions in past years. The results will help you decide how hot, cold, wet, or windy it might be!

Date:

Astronomy

Apr. 01, 2014 Rise Set
Actual Time 7:11 AM CDT 7:55 PM CDT
Civil Twilight 6:42 AM CDT 8:24 PM CDT
Nautical Twilight 6:09 AM CDT 8:58 PM CDT
Astronomical Twilight 5:33 AM CDT 9:33 PM CDT
Moon 8:12 AM CDT (4/1) 10:23 PM CDT (4/1)
Length of Visible Light 13h 41m
Length of Day
12h 44m
Waxing Crescent, 5% of the Moon is Illuminated
Apr 1
Waxing Crescent
Apr 7
First Quarter
Apr 15
Full
Apr 22
Last Quarter
Apr 29
New

Hourly Weather History & Observations

Time (CDT) Temp. Windchill Dew Point Humidity Pressure Visibility Wind Dir Wind Speed Gust Speed Precip Events Conditions
12:15 AM 21.2 °F 2.4 °F 15.8 °F 80% 29.91 in 10.0 mi WNW 32.2 mph 42.6 mph N/A   Partly Cloudy
12:35 AM 21.2 °F 2.4 °F 14.0 °F 74% 29.92 in 10.0 mi WNW 32.2 mph 42.6 mph N/A   Partly Cloudy
12:55 AM 21.2 °F 3.0 °F 17.6 °F 86% 29.93 in 6.0 mi WNW 29.9 mph 43.7 mph N/A   Clear
1:15 AM 21.2 °F 3.9 °F 15.8 °F 80% 29.94 in 9.0 mi WNW 26.5 mph 39.1 mph N/A   Partly Cloudy
1:35 AM 21.2 °F 3.0 °F 15.8 °F 80% 29.94 in 10.0 mi WNW 29.9 mph 41.4 mph N/A   Partly Cloudy
1:55 AM 21.2 °F 3.0 °F 15.8 °F 80% 29.95 in 10.0 mi WNW 29.9 mph 35.7 mph N/A   Partly Cloudy
2:15 AM 21.2 °F 3.3 °F 15.8 °F 80% 29.95 in 10.0 mi WNW 28.8 mph 36.8 mph N/A   Partly Cloudy
2:35 AM 21.2 °F 4.5 °F 15.8 °F 80% 29.97 in 10.0 mi WNW 24.2 mph 38.0 mph N/A   Clear
2:55 AM 21.2 °F 5.2 °F 15.8 °F 80% 29.99 in 10.0 mi WNW 21.9 mph 29.9 mph N/A   Scattered Clouds
3:15 AM 21.2 °F 4.9 °F 14.0 °F 74% 29.99 in 10.0 mi WNW 23.0 mph 31.1 mph N/A   Partly Cloudy
3:35 AM 19.4 °F 3.2 °F 14.0 °F 80% 29.99 in 10.0 mi WNW 20.7 mph 27.6 mph N/A   Clear
3:55 AM 19.4 °F 3.6 °F 14.0 °F 80% 30.00 in 10.0 mi WNW 19.6 mph 24.2 mph N/A   Clear
4:15 AM 19.4 °F 3.2 °F 14.0 °F 80% 30.01 in 10.0 mi West 20.7 mph - N/A   Clear
4:35 AM 19.4 °F 2.8 °F 12.2 °F 74% 30.01 in 10.0 mi WNW 21.9 mph - N/A   Clear
4:55 AM 19.4 °F 3.6 °F 12.2 °F 74% 30.01 in 10.0 mi WNW 19.6 mph 28.8 mph N/A   Clear
5:15 AM 19.4 °F 2.5 °F 12.2 °F 74% 30.01 in 10.0 mi WNW 23.0 mph 29.9 mph N/A   Clear
5:35 AM 17.6 °F 4.3 °F 12.2 °F 79% 30.02 in 10.0 mi West 12.7 mph 24.2 mph N/A   Clear
5:55 AM 17.6 °F 3.2 °F 10.4 °F 73% 30.03 in 10.0 mi West 15.0 mph - N/A   Clear
6:15 AM 17.6 °F 3.7 °F 10.4 °F 73% 30.04 in 10.0 mi WNW 13.8 mph - N/A   Clear
6:35 AM 17.6 °F 3.7 °F 10.4 °F 73% 30.04 in 10.0 mi WNW 13.8 mph - N/A   Clear
6:55 AM 17.6 °F 6.4 °F 12.2 °F 79% 30.04 in 10.0 mi WNW 9.2 mph - N/A   Clear
7:15 AM 17.6 °F 1.7 °F 12.2 °F 79% 30.05 in 10.0 mi NW 18.4 mph - N/A   Clear
7:35 AM 17.6 °F 3.2 °F 12.2 °F 79% 30.07 in 10.0 mi WNW 15.0 mph 23.0 mph N/A   Clear
7:55 AM 17.6 °F 3.2 °F 12.2 °F 79% 30.08 in 10.0 mi WNW 15.0 mph 18.4 mph N/A   Clear
8:15 AM 17.6 °F 2.2 °F 12.2 °F 79% 30.07 in 10.0 mi WNW 17.3 mph 23.0 mph N/A   Clear
8:35 AM 19.4 °F 5.5 °F 15.8 °F 86% 30.09 in 10.0 mi West 15.0 mph 25.3 mph N/A   Clear
8:55 AM 19.4 °F 5.0 °F 14.0 °F 80% 30.10 in 10.0 mi West 16.1 mph - N/A   Partly Cloudy
9:15 AM 21.2 °F 6.4 °F 14.0 °F 74% 30.11 in 10.0 mi West 18.4 mph - N/A   Mostly Cloudy
9:35 AM 21.2 °F 6.8 °F 15.8 °F 80% 30.12 in 10.0 mi WNW 17.3 mph - N/A   Mostly Cloudy
9:55 AM 21.2 °F 6.8 °F 15.8 °F 80% 30.11 in 10.0 mi WNW 17.3 mph - N/A   Overcast
10:15 AM 23.0 °F 9.6 °F 15.8 °F 74% 30.12 in 10.0 mi West 16.1 mph 23.0 mph N/A   Overcast
10:35 AM 24.8 °F 11.9 °F 17.6 °F 74% 30.12 in 10.0 mi WNW 16.1 mph 23.0 mph N/A   Mostly Cloudy
10:55 AM 24.8 °F 12.4 °F 15.8 °F 69% 30.12 in 10.0 mi WNW 15.0 mph 20.7 mph N/A   Scattered Clouds
11:15 AM 24.8 °F 11.9 °F 17.6 °F 74% 30.12 in 10.0 mi WNW 16.1 mph 20.7 mph N/A   Scattered Clouds
11:35 AM 26.6 °F 17.5 °F 19.4 °F 74% 30.12 in 10.0 mi West 9.2 mph 18.4 mph N/A   Scattered Clouds
11:55 AM 26.6 °F 15.2 °F 17.6 °F 69% 30.11 in 10.0 mi WNW 13.8 mph 18.4 mph N/A   Scattered Clouds
12:15 PM 26.6 °F 15.2 °F 19.4 °F 74% 30.11 in 10.0 mi West 13.8 mph 18.4 mph N/A   Partly Cloudy
12:35 PM 28.4 °F 19.1 °F 19.4 °F 69% 30.11 in 10.0 mi WNW 10.4 mph 16.1 mph N/A   Clear
12:55 PM 30.2 °F 20.2 °F 19.4 °F 64% 30.10 in 10.0 mi WNW 12.7 mph 18.4 mph N/A   Clear
1:15 PM 30.2 °F 20.2 °F 19.4 °F 64% 30.10 in 10.0 mi WNW 12.7 mph 17.3 mph N/A   Clear
1:35 PM 30.2 °F 20.2 °F 19.4 °F 64% 30.10 in 10.0 mi West 12.7 mph 20.7 mph N/A   Clear
1:55 PM 30.2 °F 20.8 °F 19.4 °F 64% 30.10 in 10.0 mi West 11.5 mph - N/A   Clear
2:15 PM 32.0 °F 22.5 °F 19.4 °F 60% 30.10 in 10.0 mi WNW 12.7 mph - N/A   Clear
2:35 PM 32.0 °F 23.6 °F 21.2 °F 64% 30.10 in 10.0 mi NW 10.4 mph - N/A   Clear
2:55 PM 32.0 °F 23.0 °F 19.4 °F 60% 30.09 in 10.0 mi West 11.5 mph - N/A   Clear
3:15 PM 32.0 °F 23.6 °F 19.4 °F 60% 30.09 in 10.0 mi WNW 10.4 mph - N/A   Clear
3:35 PM 33.8 °F 26.4 °F 19.4 °F 56% 30.09 in 10.0 mi WNW 9.2 mph - N/A   Clear
3:55 PM 33.8 °F 25.8 °F 21.2 °F 60% 30.08 in 10.0 mi WNW 10.4 mph - N/A   Clear
4:15 PM 33.8 °F 26.4 °F 19.4 °F 56% 30.08 in 10.0 mi WNW 9.2 mph - N/A   Clear
4:35 PM 33.8 °F 26.4 °F 19.4 °F 56% 30.08 in 10.0 mi NW 9.2 mph - N/A   Clear
4:55 PM 33.8 °F 25.8 °F 21.2 °F 60% 30.08 in 10.0 mi NNW 10.4 mph - N/A   Clear
5:15 PM 33.8 °F 27.0 °F 19.4 °F 56% 30.08 in 10.0 mi NNW 8.1 mph - N/A   Clear
5:35 PM 33.8 °F 27.0 °F 19.4 °F 56% 30.07 in 10.0 mi NNW 8.1 mph - N/A   Clear
5:55 PM 33.8 °F 27.0 °F 19.4 °F 56% 30.06 in 10.0 mi North 8.1 mph - N/A   Clear
6:15 PM 33.8 °F 28.6 °F 19.4 °F 56% 30.07 in 10.0 mi North 5.8 mph - N/A   Clear
6:35 PM 33.8 °F 26.4 °F 19.4 °F 56% 30.06 in 10.0 mi North 9.2 mph - N/A   Clear
6:55 PM 33.8 °F 27.0 °F 19.4 °F 56% 30.06 in 10.0 mi NNE 8.1 mph - N/A   Clear
7:15 PM 33.8 °F 28.6 °F 21.2 °F 60% 30.07 in 10.0 mi NNW 5.8 mph - N/A   Clear
7:35 PM 32.0 °F 27.5 °F 19.4 °F 60% 30.09 in 10.0 mi NNW 4.6 mph - N/A   Clear
7:55 PM 30.2 °F 25.4 °F 19.4 °F 64% 30.09 in 10.0 mi North 4.6 mph - N/A   Clear
8:15 PM 30.2 °F 25.4 °F 19.4 °F 64% 30.10 in 10.0 mi North 4.6 mph - N/A   Clear
8:35 PM 28.4 °F 22.2 °F 17.6 °F 64% 30.10 in 10.0 mi North 5.8 mph - N/A   Mostly Cloudy
8:55 PM 28.4 °F 22.2 °F 21.2 °F 74% 30.10 in 10.0 mi North 5.8 mph - N/A   Mostly Cloudy
9:15 PM 26.6 °F 19.1 °F 19.4 °F 74% 30.11 in 10.0 mi North 6.9 mph - N/A   Partly Cloudy
9:35 PM 26.6 °F 19.1 °F 19.4 °F 74% 30.10 in 10.0 mi North 6.9 mph - N/A   Clear
9:55 PM 26.6 °F 22.6 °F 19.4 °F 74% 30.11 in 10.0 mi North 3.5 mph - N/A   Clear
10:15 PM 26.6 °F 20.0 °F 19.4 °F 74% 30.12 in 10.0 mi North 5.8 mph - N/A   Clear
10:35 PM 24.8 °F 16.9 °F 19.4 °F 80% 30.12 in 10.0 mi NNW 6.9 mph - N/A   Clear
10:55 PM 24.8 °F 16.9 °F 19.4 °F 80% 30.12 in 10.0 mi NNW 6.9 mph - N/A   Clear
11:15 PM 23.0 °F 17.0 °F 19.4 °F 86% 30.13 in 10.0 mi NNW 4.6 mph - N/A   Clear
11:35 PM 21.2 °F 14.9 °F 17.6 °F 86% 30.13 in 10.0 mi NNW 4.6 mph - N/A   Partly Cloudy
11:55 PM 21.2 °F 13.6 °F 19.4 °F 93% 30.12 in 10.0 mi NNW 5.8 mph - N/A   Mostly Cloudy